Hourly Weather Afzalgarh

Today, 23 April, Friday

Time Temperature Precipitation Wind Pressure Humidity
00:00 +24°C° 0 mm 3 mps 738 mmHg 47%
01:00 +22°C° 0 mm 3 mps 737 mmHg 48%
02:00 +22°C° 0 mm 3 mps 737 mmHg 48%
03:00 +22°C° 0 mm 3 mps 737 mmHg 49%
04:00 +21°C° 0 mm 2 mps 737 mmHg 50%
05:00 +20°C° 0 mm 2 mps 737 mmHg 53%
06:00 +24°C° 0 mm 2 mps 737 mmHg 45%
07:00 +26°C° 0 mm 2 mps 737 mmHg 37%
08:00 +29°C° 0 mm 2 mps 738 mmHg 29%
09:00 +31°C° 0.1 mm 2 mps 738 mmHg 25%
10:00 +34°C° 0.1 mm 2 mps 738 mmHg 22%
11:00 +35°C° 0.1 mm 1 mps 738 mmHg 19%
12:00 +35°C° 0 mm 1 mps 737 mmHg 18%
13:00 +37°C° 0 mm 2 mps 736 mmHg 17%
14:00 +37°C° 0 mm 2 mps 735 mmHg 17%
15:00 +35°C° 0.1 mm 3 mps 735 mmHg 24%
16:00 +31°C° 0.1 mm 3 mps 735 mmHg 32%
17:00 +28°C° 0.1 mm 4 mps 734 mmHg 40%
18:00 +27°C° 0 mm 3 mps 735 mmHg 42%
19:00 +26°C° 0 mm 2 mps 735 mmHg 43%
20:00 +26°C° 0 mm 1 mps 736 mmHg 44%
21:00 +25°C° 0 mm 1 mps 735 mmHg 46%
22:00 +25°C° 0 mm 2 mps 735 mmHg 48%
23:00 +24°C° 0 mm 3 mps 735 mmHg 50%

Tomorrow, 24 April, Saturday

Time Temperature Precipitation Wind Pressure Humidity
00:00 +24°C° 0 mm 3 mps 735 mmHg 50%
01:00 +24°C° 0 mm 3 mps 735 mmHg 51%
02:00 +22°C° 0 mm 3 mps 734 mmHg 51%
03:00 +23°C° 0 mm 2 mps 735 mmHg 52%
04:00 +23°C° 0 mm 2 mps 735 mmHg 52%
05:00 +21°C° 0 mm 2 mps 735 mmHg 52%
06:00 +25°C° 0 mm 1 mps 736 mmHg 44%
07:00 +27°C° 0 mm 1 mps 736 mmHg 36%
08:00 +30°C° 0 mm 1 mps 737 mmHg 29%
09:00 +32°C° 0 mm 1 mps 737 mmHg 25%
10:00 +35°C° 0 mm 2 mps 736 mmHg 21%
11:00 +38°C° 0 mm 3 mps 736 mmHg 17%
12:00 +38°C° 0 mm 3 mps 736 mmHg 15%
13:00 +39°C° 0 mm 3 mps 735 mmHg 13%
14:00 +40°C° 0 mm 3 mps 734 mmHg 10%
15:00 +39°C° 0 mm 3 mps 734 mmHg 10%
16:00 +39°C° 0 mm 3 mps 734 mmHg 10%
17:00 +38°C° 0 mm 3 mps 733 mmHg 10%
18:00 +36°C° 0 mm 3 mps 734 mmHg 13%
19:00 +34°C° 0 mm 3 mps 735 mmHg 15%
20:00 +30°C° 0 mm 3 mps 735 mmHg 18%
21:00 +30°C° 0 mm 2 mps 735 mmHg 20%
22:00 +29°C° 0 mm 2 mps 735 mmHg 22%
23:00 +28°C° 0 mm 2 mps 735 mmHg 24%

Day after tomorrow, 25 April, Sunday

Time Temperature Precipitation Wind Pressure Humidity
00:00 +27°C° 0 mm 2 mps 735 mmHg 25%
01:00 +27°C° 0 mm 2 mps 735 mmHg 27%
02:00 +26°C° 0 mm 2 mps 735 mmHg 28%
03:00 +26°C° 0 mm 2 mps 735 mmHg 29%
04:00 +25°C° 0 mm 2 mps 735 mmHg 30%
05:00 +25°C° 0 mm 2 mps 735 mmHg 31%
06:00 +28°C° 0 mm 2 mps 735 mmHg 26%
07:00 +30°C° 0 mm 2 mps 736 mmHg 22%
08:00 +33°C° 0 mm 1 mps 736 mmHg 17%
09:00 +35°C° 0 mm 1 mps 736 mmHg 15%
10:00 +39°C° 0 mm 2 mps 736 mmHg 12%
11:00 +41°C° 0 mm 2 mps 736 mmHg 9%
12:00 +41°C° 0 mm 2 mps 735 mmHg 8%
13:00 +43°C° 0 mm 3 mps 734 mmHg 7%
14:00 +44°C° 0 mm 3 mps 734 mmHg 6%
15:00 +43°C° 0 mm 3 mps 733 mmHg 6%
16:00 +43°C° 0 mm 3 mps 733 mmHg 6%
17:00 +42°C° 0 mm 3 mps 733 mmHg 6%
18:00 +39°C° 0 mm 3 mps 733 mmHg 7%
19:00 +36°C° 0 mm 2 mps 734 mmHg 9%
20:00 +32°C° 0 mm 2 mps 734 mmHg 11%
21:00 +32°C° 0 mm 2 mps 734 mmHg 12%
22:00 +31°C° 0 mm 2 mps 734 mmHg 14%
23:00 +30°C° 0 mm 2 mps 734 mmHg 15%

26 April, Monday

Time Temperature Precipitation Wind Pressure Humidity
00:00 +29°C° 0 mm 2 mps 734 mmHg 16%
01:00 +29°C° 0 mm 2 mps 734 mmHg 17%
02:00 +28°C° 0 mm 2 mps 733 mmHg 18%
03:00 +27°C° 0 mm 2 mps 733 mmHg 19%
04:00 +27°C° 0 mm 2 mps 733 mmHg 20%
05:00 +27°C° 0 mm 3 mps 733 mmHg 21%
06:00 +30°C° 0 mm 2 mps 734 mmHg 18%
07:00 +34°C° 0 mm 2 mps 734 mmHg 15%
08:00 +35°C° 0 mm 1 mps 735 mmHg 12%
09:00 +39°C° 0 mm 2 mps 735 mmHg 10%
10:00 +42°C° 0 mm 3 mps 735 mmHg 8%
11:00 +45°C° 0 mm 4 mps 734 mmHg 6%
12:00 +45°C° 0 mm 4 mps 734 mmHg 5%
13:00 +45°C° 0 mm 4 mps 733 mmHg 5%
14:00 +47°C° 0 mm 4 mps 732 mmHg 4%
15:00 +45°C° 0 mm 4 mps 732 mmHg 4%
16:00 +45°C° 0 mm 4 mps 732 mmHg 4%
17:00 +44°C° 0 mm 3 mps 731 mmHg 4%
18:00 +40°C° 0 mm 3 mps 732 mmHg 5%
19:00 +37°C° 0 mm 3 mps 732 mmHg 6%
20:00 +34°C° 0 mm 3 mps 733 mmHg 7%
21:00 +34°C° 0 mm 3 mps 733 mmHg 8%
22:00 +32°C° 0 mm 2 mps 733 mmHg 8%
23:00 +31°C° 0 mm 2 mps 733 mmHg 9%

27 April, Tuesday

Time Temperature Precipitation Wind Pressure Humidity
00:00 +30°C° 0 mm 2 mps 733 mmHg 10%
01:00 +30°C° 0 mm 2 mps 733 mmHg 10%
02:00 +29°C° 0 mm 2 mps 732 mmHg 11%
03:00 +29°C° 0 mm 2 mps 732 mmHg 12%
04:00 +28°C° 0 mm 2 mps 733 mmHg 13%
05:00 +27°C° 0 mm 2 mps 733 mmHg 14%
06:00 +30°C° 0 mm 1 mps 733 mmHg 12%
07:00 +33°C° 0 mm 1 mps 734 mmHg 11%
08:00 +36°C° 0 mm 1 mps 734 mmHg 9%
09:00 +40°C° 0 mm 2 mps 734 mmHg 8%
10:00 +43°C° 0 mm 3 mps 734 mmHg 6%
11:00 +45°C° 0 mm 3 mps 734 mmHg 5%
12:00 +46°C° 0 mm 3 mps 733 mmHg 5%
13:00 +47°C° 0 mm 3 mps 732 mmHg 4%
14:00 +48°C° 0 mm 4 mps 731 mmHg 4%
15:00 +48°C° 0 mm 4 mps 731 mmHg 4%
16:00 +47°C° 0 mm 4 mps 731 mmHg 4%
17:00 +47°C° 0 mm 4 mps 731 mmHg 4%
18:00 +43°C° 0 mm 4 mps 731 mmHg 6%
19:00 +39°C° 0 mm 3 mps 732 mmHg 7%
20:00 +36°C° 0 mm 3 mps 732 mmHg 8%
21:00 +35°C° 0 mm 3 mps 732 mmHg 9%
22:00 +34°C° 0 mm 2 mps 732 mmHg 10%
23:00 +34°C° 0 mm 2 mps 732 mmHg 10%

28 April, Wednesday

Time Temperature Precipitation Wind Pressure Humidity
00:00 +32°C° 0 mm 2 mps 732 mmHg 11%
01:00 +31°C° 0 mm 2 mps 732 mmHg 11%
02:00 +31°C° 0 mm 2 mps 732 mmHg 12%
03:00 +30°C° 0 mm 2 mps 732 mmHg 12%
04:00 +30°C° 0 mm 2 mps 732 mmHg 13%
05:00 +29°C° 0 mm 2 mps 732 mmHg 14%
06:00 +32°C° 0 mm 1 mps 733 mmHg 12%
07:00 +34°C° 0 mm 1 mps 733 mmHg 11%
08:00 +37°C° 0 mm 1 mps 734 mmHg 9%
09:00 +40°C° 0 mm 1 mps 734 mmHg 8%
10:00 +43°C° 0 mm 2 mps 734 mmHg 6%
11:00 +46°C° 0 mm 3 mps 734 mmHg 5%
12:00 +46°C° 0 mm 3 mps 733 mmHg 5%
13:00 +47°C° 0 mm 3 mps 732 mmHg 4%
14:00 +49°C° 0 mm 4 mps 731 mmHg 4%
15:00 +48°C° 0 mm 4 mps 731 mmHg 4%
16:00 +48°C° 0 mm 4 mps 731 mmHg 4%
17:00 +47°C° 0 mm 5 mps 730 mmHg 4%
18:00 +44°C° 0 mm 4 mps 731 mmHg 6%
19:00 +40°C° 0 mm 3 mps 731 mmHg 7%
20:00 +37°C° 0 mm 3 mps 731 mmHg 8%
21:00 +36°C° 0 mm 2 mps 731 mmHg 9%
22:00 +35°C° 0 mm 2 mps 732 mmHg 10%
23:00 +34°C° 0 mm 2 mps 732 mmHg 11%
Show more